Regional Weather Roundup
Issued by NWS

Home | Current Version | Previous Version | Text Only | Print | Product List | Glossary On
Versions: 1 2 3 4 5 6 7 8 9 10 11 12 13 14 15 16 17 18 19 20 21 22 23 24 25 26 27
000
ASUS45 KBOU 240107
RWRCO

WEATHER ROUNDUP FOR COLORADO
NATIONAL WEATHER SERVICE DENVER/BOULDER CO
700 PM MDT SAT JUL 23 2016

NOTE: "FAIR" INDICATES FEW OR NO CLOUDS BELOW 12000 FEET WITH NO
SIGNIFICANT WEATHER AND/OR OBSTRUCTIONS TO VISIBILITY.

COZ001>005-013-030-031-240200-
...NORTHWEST COLORADO...

CITY           SKY/WX    TMP DP  RH WIND       PRES   REMARKS
CRAIG          FAIR      82  43  25 S14       30.12S
HAYDEN         FAIR      81  37  21 SW10      30.16S
MEEKER         FAIR      78  50  37 E5        30.18R
MOUNT WERNER   NOT AVBL
STEAMBOAT SPGS FAIR      79  44  28 E9        30.20S
WALDEN         FAIR      73  41  31 S10       30.32S
$$

COZ006>008-011-240200-
...WEST CENTRAL VALLEYS...

CITY           SKY/WX    TMP DP  RH WIND       PRES   REMARKS
GRAND JUNCTION FAIR      95  40  14 SW5       29.98F
MONTROSE       FAIR      88  49  25 SW3       30.10F
EAGLE          MOSUNNY   84  37  18 CALM      30.21F
RIFLE          FAIR      92  38  15 E8        30.07S
DELTA          FAIR      95  37  13 E6        30.04S
NUCLA          FAIR      90  28  11 SW5       30.15F
$$

COZ017>023-064>068-240200-
...SOUTHWEST COLORADO...

CITY           SKY/WX    TMP DP  RH WIND       PRES   REMARKS
DURANGO        LGT RAIN  78  46  32 E10       30.19R
CORTEZ         FAIR      87  39  18 N8        30.11F
PAGOSA SPRINGS FAIR      80  35  19 NW13      30.29R
TELLURIDE      FAIR      75  36  24 NW3       30.43F
WOLF CREEK PAS CLOUDY    54  36  50 NE14      30.69S
$$

COZ009-010-012-014-032>034-037-058>063-240200-
...CENTRAL COLORADO...

CITY           SKY/WX    TMP DP  RH WIND       PRES   REMARKS
ASPEN          FAIR      79  40  24 W3        30.28S
BUENA VISTA    PTSUNNY   76  45  33 SW6       30.28S
COPPER MTN     FAIR      61  32  33 NW15G24   30.67S
BERTHOUD PASS  FAIR      46  32  57 N15       30.70S
COTTONWOOD PAS LGT RAIN  70  37  30 SE7       30.46S
GUNNISON       FAIR      79  37  22 NW12      30.30R
KREMMLING      FAIR      73  45  35 E7        30.29F
LEADVILLE      FAIR      70  27  20 NW12G20   30.47R
MONARCH PASS   FAIR      64  32  29 MISG      30.75S
SALIDA         PTSUNNY   79  38  23 SE12G25   30.32R
SUNLIGHT       FAIR      68  34  28 CALM      30.59S
WILKERSON PASS FAIR      63  37  39 E7        30.63R
$$

COZ069>075-240200-
...SAN LUIS VALLEY/SANGRE DE CRISTO MOUNTAINS...

CITY           SKY/WX    TMP DP  RH WIND       PRES   REMARKS
ALAMOSA        FAIR      79  38  22 N14G22    30.25R
LA VETA PASS   FAIR      63  37  39 N6        30.52R
SAGUACHE       FAIR      77  41  27 NW10      30.29R
$$

COZ035-036-038>040-240200-
...NORTHERN COLORADO FRONT RANGE...

CITY           SKY/WX    TMP DP  RH WIND       PRES   REMARKS
DENVER INTL AP PTSUNNY   80  47  31 NE30G37   30.07R
DMNS CITY PARK   N/A     82  45  26 W14       30.08R
AURORA         PTSUNNY   84  42  22 NE13      30.11R
FRONT RANGE AP PTSUNNY   84  48  28 N39G48    30.09R
ERIE MUNI ARPT FAIR      89  37  16 W9        30.07R
BOULDER MUN AP FAIR      86  36  16 W10       30.07S
CENTENNIAL     PTSUNNY   84  37  18 CALM      30.14R
BROOMFIELD     PTSUNNY   86  41  20 NW13G21   30.10S
LONGMONT       FAIR      89  36  15 NW6       30.06S
$$

COZ041-046-047-076>085-087-088-240200-
...PIKES PEAK/PALMER DIVIDE AND SOUTHERN FOOTHILLS...

CITY           SKY/WX    TMP DP  RH WIND       PRES   REMARKS
COLO. SPRINGS  PTSUNNY   78  49  35 SE15      30.20R
A. F. ACADEMY  MOSUNNY   79  46  30 S12       30.21R
SCHRIEVER AFB  NOT AVBL
ELLICOTT       TSTM     N/A N/A N/A NW24G33   30.21R
FALCON         FAIR      75  45  34 CALM      30.27R
FORT CARSON    FAIR      80  47  30 VRB5      30.16S
LIMON          FAIR      88  41  19 SE13      30.05R
MONUMENT HILL  FAIR      72  46  40 S14       30.24S
TRINIDAD       NOT AVBL
$$

COZ042>045-048>051-090-091-240200-
...NORTHEAST COLORADO...

CITY           SKY/WX    TMP DP  RH WIND       PRES   REMARKS
GREELEY ARPT   FAIR      82  52  34 S5        30.04R
AKRON          FAIR      79  52  38 N21G30    30.03R
BURLINGTON     FAIR      93  47  20 E8        29.97R
WRAY           NOT AVBL
STERLING       FAIR      82  54  36 NE12G18   29.98F
HOLYOKE        FAIR      86  59  39 W8        29.98R
FORT MORGAN    FAIR      82  47  29 NE13G18   30.02R
$$

COZ086-089-092>099-240200-
...SOUTHEAST COLORADO...

CITY           SKY/WX    TMP DP  RH WIND       PRES   REMARKS
PUEBLO         PTSUNNY   86  50  28 N24G31    30.06R
LA JUNTA       FAIR      97  53  22 E22       29.92S
LAMAR          FAIR      88  63  43 NE14      29.87S
SPRINGFIELD      N/A     85  53  33 S15       29.95F
$$




USA.gov is the U.S. government's official web portal to all federal, state and local government web resources and services.